Location: Krakow
(50.0830°N, 19.9170°E)
Time: 10:25:56
(UTC+01:00)

Transit 2A Rocket - All Passes

Search period start: 11 December 2023 00:00
Search period end: 21 December 2023 00:00
Orbit: 593 x 902 km, 66.7° (Epoch: 11 December)

Date Brightness Start Highest point End Pass type
(mag) Time Alt. Az. Time Alt. Az. Time Alt. Az.
11 Dec - 02:01:52 10° NNW 02:05:01 19° NNE 02:08:13 10° ENE night (unlit)
11 Dec - 03:43:43 10° NW 03:48:05 86° NE 03:52:39 10° SE visible
11 Dec - 05:27:41 10° WNW 05:29:57 14° WSW 05:32:16 10° SW visible
11 Dec - 18:23:23 10° SSE 18:26:44 20° ESE 18:29:58 10° ENE visible
11 Dec - 20:04:16 10° SW 20:08:49 63° NW 20:13:09 10° NNE night (unlit)
11 Dec - 21:49:20 10° WNW 21:52:06 16° NNW 21:54:50 10° NNE night (unlit)
12 Dec - 01:18:32 10° N 01:20:57 14° NNE 01:23:23 10° ENE night (unlit)
12 Dec - 03:00:08 10° NNW 03:04:23 52° NE 03:08:48 10° SE visible
12 Dec - 04:43:02 10° WNW 04:46:34 24° WSW 04:50:15 10° SSW visible
12 Dec - 17:42:01 10° SE 17:43:24 11° ESE 17:44:45 10° E visible
12 Dec - 19:20:32 10° SSW 19:25:09 78° SE 19:29:31 10° NE visible
12 Dec - 21:04:35 10° W 21:08:04 22° NW 21:11:29 10° NNE night (unlit)
13 Dec - 00:35:21 10° N 00:36:47 11° NNE 00:38:14 10° NE night (unlit)
13 Dec - 02:16:37 10° NNW 02:20:34 33° NE 02:24:39 10° ESE night (unlit)
13 Dec - 03:58:59 10° NW 04:03:06 41° WSW 04:07:25 10° S visible
13 Dec - 18:37:10 10° S 18:41:34 45° ESE 18:45:44 10° NE visible
13 Dec - 20:20:07 10° WSW 20:24:09 31° NW 20:28:03 10° NNE visible
13 Dec - 22:06:41 10° NW 22:07:58 11° NNW 22:09:15 10° N night (unlit)
14 Dec - 01:33:11 10° NNW 01:36:40 23° NE 01:40:13 10° E night (unlit)
14 Dec - 03:15:11 10° NW 03:19:32 73° SW 03:24:06 10° SSE night (unlit)
14 Dec - 05:00:47 10° W 05:01:14 10° WSW 05:01:41 10° WSW night (unlit)
14 Dec - 17:54:15 10° S 17:58:05 26° ESE 18:01:45 10° ENE visible
14 Dec - 19:35:55 10° WSW 19:40:19 48° NW 19:44:33 10° NNE visible
14 Dec - 21:21:29 10° WNW 21:23:48 14° NNW 21:26:06 10° N night (unlit)
15 Dec - 00:49:48 10° NNW 00:52:38 17° NNE 00:55:30 10° ENE night (unlit)
15 Dec - 02:31:32 10° NNW 02:35:52 67° NE 02:40:25 10° SE night (unlit)
15 Dec - 04:14:52 10° WNW 04:17:54 18° WSW 04:21:04 10° SSW night (unlit)
15 Dec - 17:12:04 10° SE 17:14:42 15° ESE 17:17:14 10° ENE visible
15 Dec - 18:52:02 10° SW 18:56:35 80° NW 19:00:58 10° NE visible
15 Dec - 20:36:36 10° WNW 20:39:42 18° NNW 20:42:47 10° NNE visible
16 Dec - 00:06:31 10° N 00:08:31 13° NNE 00:10:32 10° NE night (unlit)
16 Dec - 01:47:59 10° NNW 01:52:07 41° NE 01:56:26 10° ESE night (unlit)
16 Dec - 03:30:35 10° NW 03:34:29 31° WSW 03:38:33 10° S night (unlit)
16 Dec - 18:08:27 10° SSW 18:12:58 60° ESE 18:17:16 10° NE visible
16 Dec - 19:51:59 10° W 19:55:44 26° NW 19:59:23 10° NNE visible
16 Dec - 21:39:24 10° NNW 21:39:44 10° NNW 21:40:02 10° N night (unlit)
16 Dec - 23:23:32 10° N 23:24:19 10° NNE 23:25:06 10° NNE night (unlit)
17 Dec - 01:04:30 10° NNW 01:08:16 27° NE 01:12:08 10° E night (unlit)
17 Dec - 02:46:40 10° NW 02:50:57 54° WSW 02:55:27 10° SSE night (unlit)
17 Dec - 17:25:18 10° S 17:29:26 34° ESE 17:33:24 10° NE visible
17 Dec - 19:07:38 10° WSW 19:11:50 38° NW 19:15:55 10° NNE visible
17 Dec - 20:53:42 10° NW 20:55:31 12° NNW 20:57:19 10° N visible
18 Dec - 00:21:06 10° NNW 00:24:17 19° NNE 00:27:33 10° E night (unlit)
18 Dec - 02:02:57 10° NW 02:07:20 87° NE 02:11:58 10° SE night (unlit)
18 Dec - 03:46:55 10° WNW 03:49:12 14° WSW 03:51:34 10° SW night (unlit)
18 Dec - 16:42:41 10° SSE 16:45:59 20° ESE 16:49:12 10° ENE visible
18 Dec - 18:23:35 10° SW 18:28:04 62° NW 18:32:23 10° NNE visible
18 Dec - 20:08:39 10° WNW 20:11:23 16° NNW 20:14:03 10° N visible
18 Dec - 23:37:45 10° N 23:40:13 15° NNE 23:42:43 10° ENE night (unlit)
19 Dec - 01:19:21 10° NNW 01:23:38 53° NE 01:28:07 10° SE night (unlit)
19 Dec - 03:02:15 10° WNW 03:05:50 24° WSW 03:09:33 10° SSW night (unlit)
19 Dec - 16:01:18 10° SE 16:02:39 11° ESE 16:03:58 10° E daylight
19 Dec - 17:39:50 10° SSW 17:44:24 79° ESE 17:48:44 10° NE visible
19 Dec - 19:23:54 10° W 19:27:20 21° NW 19:30:41 10° NNE visible
19 Dec - 22:54:33 10° N 22:56:03 12° NNE 22:57:35 10° NE night (unlit)
20 Dec - 00:35:50 10° NNW 00:39:50 34° NE 00:43:58 10° ESE night (unlit)
20 Dec - 02:18:12 10° NW 02:22:21 41° WSW 02:26:43 10° S night (unlit)
20 Dec - 16:56:28 10° SSW 17:00:48 45° ESE 17:04:58 10° NE visible
20 Dec - 18:39:25 10° WSW 18:43:23 31° NW 18:47:16 10° NNE visible
20 Dec - 20:26:02 10° NNW 20:27:14 11° NNW 20:28:27 10° N visible
20 Dec - 23:52:23 10° NNW 23:55:54 23° NE 23:59:32 10° E night (unlit)
